Lapse_Rate
7.7 7.8 8.1 8.0 7.6 5.9 5.3 5.3 4.8 4.9 5.0 4.8 4.5 4.5 4.6 5.0 5.4 6.6 6.0 5.5 6.2 6.2 6.5 6.4 6.6 6.4 6.7 7.1 7.3 7.3 7.1 8.2 8.7
7.4 7.7 8.1 7.9 7.5 6.4 5.1 4.9 4.4 4.5 4.8 4.7 4.5 4.1 4.4 4.6 5.1 5.4 5.5 4.9 4.6 5.7 5.1 6.4 6.1 6.1 6.4 6.9 6.9 7.1 7.5 8.9 8.2
7.3 7.6 7.7 8.1 8.2 6.2 5.1 5.0 4.9 4.7 4.7 4.8 4.2 4.1 4.3 4.6 4.6 4.1 4.3 4.2 3.8 4.7 4.6 5.7 5.5 5.8 6.4 6.8 6.6 7.0 7.5 8.6 8.6
7.2 7.5 7.7 8.2 8.3 6.7 4.4 4.7 5.1 4.9 4.7 4.7 4.8 3.9 3.7 4.1 4.0 3.8 3.8 3.2 2.1 1.3 3.7 3.0 4.9 5.3 6.2 6.8 6.7 6.8 6.9 7.5 8.1
7.4 7.5 7.2 7.8 8.1 8.0 6.8 5.1 4.9 5.1 5.3 5.3 4.9 4.3 3.4 3.2 3.4 1.6 1.4 2.2 2.5 1.6 2.2 5.0 4.5 5.4 5.8 6.0 6.9 7.3 7.1 7.9 9.0
7.0 7.4 7.6 7.6 8.0 7.8 6.8 5.8 4.8 5.1 4.9 5.5 5.5 5.0 4.1 3.3 2.9 2.5 3.1 0.2 2.9 2.1 1.6 3.2 5.1 5.3 5.1 5.4 6.2 6.7 7.2 7.1 8.0
6.9 7.0 6.9 6.8 7.4 4.8 4.2 4.1 3.8 4.0 5.1 6.1 6.3 5.6 4.7 3.9 2.6 2.7 1.4 1.6 0.9 2.0 1.9 3.5 3.4 4.1 4.8 5.5 6.4 6.9 6.9 7.3 7.2
7.1 7.1 7.2 5.9 3.5 2.2 2.2 3.7 3.3 3.5 4.8 5.4 5.9 5.1 4.9 4.1 4.7 4.2 2.0 0.1 0.3 1.8 1.7 3.1 4.7 4.1 4.2 5.6 6.5 7.2 6.3 7.3 7.6
6.9 6.6 5.1 3.3 1.9 2.2 1.9 1.9 1.7 3.0 3.9 5.2 5.1 4.9 5.2 5.5 4.8 2.5 2.1 2.3 2.1 1.2 2.5 3.5 5.3 4.6 5.2 5.1 6.0 4.3 3.2 5.8 7.8
6.6 4.6 2.6 2.0 1.4 2.6 2.7 3.0 3.0 3.0 3.4 4.6 4.7 4.5 5.2 5.0 3.7 2.8 2.8 3.0 3.9 3.6 2.0 1.7 5.7 4.6 4.9 5.0 5.0 2.6 1.9 2.7 7.0
7.2 6.9 6.1 5.9 6.6 3.5 2.4 3.8 3.9 4.1 4.2 3.9 4.4 4.4 5.1 4.7 4.2 4.1 3.8 4.5 5.0 4.7 3.0 2.6 5.4 4.9 5.0 5.3 6.2 2.0 1.3 2.0 5.7
5.3 4.2 4.4 3.5 3.7 3.5 2.3 2.6 2.5 2.3 2.2 2.3 2.7 3.3 4.3 3.9 4.2 4.4 4.4 5.2 5.5 5.5 4.4 5.1 4.6 4.9 5.4 5.5 5.3 1.0 0.7 2.1 3.7
4.5 4.4 3.5 2.7 2.5 2.3 2.5 2.0 2.3 2.1 1.9 1.8 2.3 3.5 3.7 3.7 4.6 5.1 5.2 6.0 6.2 5.6 6.0 5.0 5.4 5.9 6.0 3.9 4.2 -1.1 -0.6 1.1 1.7
5.0 4.5 3.1 3.0 3.3 2.9 2.1 1.8 2.5 2.2 1.8 2.3 2.7 2.6 2.6 3.8 4.5 4.9 5.6 6.4 6.3 5.6 5.4 5.5 5.4 4.4 4.4 3.9 3.3 2.4 -0.2 -1.2 3.3
4.9 4.6 4.3 4.3 3.2 2.4 1.7 1.9 2.9 1.9 1.4 1.2 1.1 3.1 2.1 3.9 5.2 5.9 6.2 5.7 5.6 5.9 6.1 6.5 4.9 5.2 5.5 4.1 4.3 -1.4 -0.4 -1.4 -0.8
4.2 3.7 3.6 4.7 4.5 3.0 2.0 1.7 2.3 1.1 0.4 1.0 2.5 1.8 2.6 4.6 5.5 5.0 5.1 5.4 5.2 5.8 6.3 6.8 6.8 6.8 6.0 5.3 2.7 2.1 -1.9 -2.5 -2.3
4.4 4.7 4.1 4.6 4.7 4.0 2.4 1.7 1.3 1.7 1.8 2.8 2.9 2.4 3.8 4.0 4.5 4.9 5.0 6.1 6.2 6.7 6.9 4.2 3.5 4.3 6.0 4.9 4.2 4.0 3.7 3.0 2.7
4.5 3.8 3.6 4.2 4.4 3.7 3.2 2.6 3.0 3.4 3.2 3.0 2.2 2.9 3.8 3.9 4.9 4.7 5.5 5.4 5.0 6.3 4.0 2.2 5.5 6.2 7.2 6.8 5.9 4.8 3.2 3.7 5.5
4.2 3.9 4.4 4.2 3.8 2.4 2.0 3.0 3.2 3.2 3.5 5.0 5.6 6.9 6.6 5.1 4.9 5.5 6.6 4.3 2.5 -5.1 -4.7 -4.7 -4.0 -4.0 3.0 2.9 -1.8 -3.5 -3.6 -3.0 -2.8
2.9 5.0 4.6 4.4 4.3 3.7 3.0 3.4 4.1 4.4 4.4 4.8 5.4 5.1 5.0 5.8 5.4 6.6 5.9 4.9 5.7 5.9 -0.2 -4.9 -5.6 -5.3 -3.9 -1.5 -2.9 -4.6 -5.1 -4.8 -3.9
Wind_Speed
21 24 23 24 23 20 19 20 20 19 17 16 16 17 16 14 16 11 11 12 9 8 9 9 9 9 9 10 9 8 7 4 4
21 25 25 26 24 21 19 19 20 19 18 17 17 18 14 15 14 15 13 12 10 9 10 8 9 10 10 9 9 9 7 5 4
22 23 25 24 23 23 20 21 20 20 19 18 17 16 15 14 16 15 14 12 10 10 10 9 10 11 10 10 9 8 7 6 6
20 21 22 23 22 22 22 21 20 20 19 18 16 16 16 16 16 15 12 10 14 8 7 12 10 11 11 10 10 8 7 8 8
13 19 20 21 22 21 20 20 20 20 19 19 19 17 16 17 16 11 14 13 5 11 7 8 10 11 11 10 10 9 9 9 9
9 15 18 19 19 19 20 20 19 20 20 22 21 17 18 17 17 16 15 11 12 6 6 4 9 10 10 10 10 10 10 9 10
10 14 17 17 17 17 18 18 17 18 18 19 17 18 19 17 17 14 8 11 6 7 6 2 6 8 9 10 10 10 9 9 10
10 13 15 18 18 16 16 15 15 15 16 15 16 16 17 16 10 11 14 12 13 10 10 7 15 10 9 9 10 9 10 10 10
14 16 18 20 17 16 16 16 15 13 14 15 14 14 14 11 13 15 17 16 14 15 14 12 17 10 9 9 8 9 11 11 10
17 17 17 17 17 14 11 12 11 12 13 12 12 12 11 12 16 17 18 18 17 13 16 19 18 14 14 13 10 10 12 12 9
10 7 6 5 7 9 9 10 10 10 10 11 10 10 11 13 16 17 18 18 19 18 15 16 14 16 14 11 10 6 1 7 8
6 10 10 10 10 10 10 11 10 10 10 10 10 10 12 13 16 17 17 19 18 14 13 14 11 9 8 9 8 10 9 6 3
10 11 13 14 13 12 10 9 12 12 10 10 9 10 12 14 15 15 17 17 15 12 11 7 7 9 9 11 9 11 12 7 4
16 13 13 13 13 12 11 11 11 11 10 9 9 11 12 12 14 16 16 14 11 10 11 9 10 11 10 10 11 11 6 7 5
17 17 12 11 11 9 8 8 8 10 9 10 11 11 10 10 12 10 9 11 9 10 11 12 10 9 9 8 10 4 6 7 8
12 11 11 8 8 7 5 5 5 10 10 10 12 12 9 10 11 10 11 11 11 10 11 9 8 8 8 7 5 4 4 5 8
9 7 9 8 6 5 4 3 5 5 11 13 11 10 10 11 12 12 11 10 8 8 8 6 5 4 5 4 4 4 5 6 6
9 8 8 6 5 4 3 4 5 8 10 12 13 13 13 13 10 12 9 4 3 5 2 1 4 5 5 5 4 5 5 4 5
9 8 5 5 5 3 2 4 6 7 8 8 7 8 9 8 8 7 8 6 5 11 7 6 5 5 2 5 9 14 11 8 6
8 9 7 6 4 3 3 4 6 8 9 8 8 8 8 8 7 9 8 6 6 5 5 10 9 6 7 8 12 11 11 10 9
Wind_Direction
215 212 210 214 209 205 204 204 205 206 207 215 206 208 209 209 211 214 214 209 205 205 207 201 188 192 198 198 198 193 194 208 228
209 211 209 208 206 205 201 202 206 205 205 212 207 208 204 207 210 215 214 208 205 208 204 193 185 187 190 195 192 196 200 226 229
218 207 207 205 205 202 200 205 206 204 208 208 209 206 208 207 210 211 211 199 201 213 202 203 188 184 195 201 198 201 213 225 229
218 205 202 202 201 200 201 204 203 206 205 208 207 207 209 209 210 210 209 212 186 184 220 181 200 196 203 207 209 204 214 236 251
225 205 198 198 198 201 204 206 207 208 209 208 210 207 207 210 207 187 189 192 198 178 182 232 201 208 212 210 218 223 219 238 251
212 197 191 192 194 197 202 206 208 211 211 212 213 207 209 214 206 201 204 172 164 166 127 176 235 226 218 215 218 222 228 234 247
210 193 190 186 189 197 200 204 205 211 215 217 215 213 214 214 208 200 154 145 130 122 67 312 234 228 227 226 223 226 228 232 238
198 192 190 193 194 195 197 199 205 212 216 211 214 212 216 215 192 173 162 151 135 124 119 240 263 236 222 223 225 226 223 230 242
201 202 201 202 197 193 196 198 201 205 212 214 209 211 214 198 176 164 168 162 164 163 167 209 252 238 234 218 227 223 212 232 249
204 205 204 202 196 191 192 194 189 198 204 205 204 207 199 180 169 168 173 173 173 176 191 201 229 230 222 220 221 210 216 215 249
223 228 219 190 171 163 169 181 187 191 189 194 194 191 183 175 175 176 178 176 181 193 208 208 219 230 222 222 227 202 282 327 296
171 164 159 165 163 161 160 170 159 161 164 168 181 184 182 180 179 178 182 185 188 203 212 211 209 221 216 215 209 161 174 158 358
115 129 133 129 128 128 133 141 151 150 157 169 180 183 182 180 179 184 191 199 193 199 214 204 187 183 195 200 201 173 161 143 173
100 102 110 119 122 128 138 146 146 137 149 165 173 172 179 188 185 185 185 188 190 193 199 197 191 192 196 193 193 202 202 138 194
100 104 99 100 101 111 127 141 141 140 154 156 162 179 169 177 188 186 172 173 169 190 202 201 196 201 209 212 222 176 171 175 212
71 86 90 83 101 114 110 122 139 150 151 156 170 153 170 181 170 170 173 175 179 185 195 203 211 209 213 200 190 152 60 130 129
89 88 90 96 108 118 138 155 149 136 160 163 154 152 187 190 185 182 181 189 193 198 207 207 197 210 239 189 161 149 158 125 130
85 81 73 70 80 92 113 129 130 152 153 164 161 180 194 191 192 190 178 159 190 199 150 302 249 227 217 188 168 169 142 148 185
83 86 91 98 99 102 129 148 132 136 149 174 182 191 191 180 176 178 173 172 144 50 34 15 341 347 10 91 91 127 139 145 127
43 55 54 60 59 70 122 148 153 154 146 154 163 178 181 179 180 184 187 194 194 171 88 79 59 69 90 84 113 102 104 104 98